Regional Weather Roundup
Issued by NWS

Home | Current Version | Previous Version | Graphics & Text | Print | Product List | Glossary On
Versions: 1 2 3 4 5 6 7 8 9 10 11 12 13 14 15 16 17 18 19 20 21 22 23 24 25 26 27 28 29 30 31 32 33 34 35 36 37 38 39 40 41 42 43 44 45 46 47 48 49 50
290
ASUS43 KMPX 292310
RWRMN
WEATHER ROUNDUP FOR MINNESOTA
NATIONAL WEATHER SERVICE TWIN CITIES/CHANHASSEN MN
600 PM CDT WED MAR 29 2017


NOTE: "FAIR" INDICATES FEW OR NO CLOUDS BELOW 12,000 FEET WITH NO
SIGNIFICANT WEATHER AND/OR OBSTRUCTIONS TO VISIBILITY. N/A MEANS
CURRENT SKY AND/OR WEATHER CONDITIONS ARE NOT AVAILABLE.

MNZ060>063-068>070-300000-
   Twin Cities Metro

CITY           SKY/WX    TMP DP  RH WIND       PRES   REMARKS
TWIN CITIES    CLOUDY    47  37  68 SE7       30.17S
ST PAUL        CLOUDY    47  38  71 SE13      30.17F
CRYSTAL        CLOUDY    48  34  58 SE10      30.15F
BLAINE         CLOUDY    50  36  57 SE5       30.16F
LAKEVILLE      DRIZZLE   43  41  93 E8        30.16R
EDEN PRAIRIE   LGT RAIN  46  39  76 SE12      30.16R
SOUTH ST PAUL  CLOUDY    47  37  66 SE7       30.16S
LAKE ELMO      PTSUNNY   46  36  66 CALM      30.17F
$$
MNZ001>005-007-008-013>017-022>024-027-028-300000-
   Northwest Minnesota

CITY           SKY/WX    TMP DP  RH WIND       PRES   REMARKS
BEMIDJI        CLOUDY    54  32  44 E13       30.10S
HALLOCK        MOSUNNY   57  48  72 S13       30.01F
ROSEAU         SUNNY     59  43  55 S13       30.03F
WARROAD        SUNNY     59  41  51 S9        30.04F
THIEF RVR FALL SUNNY     57  40  52 S14       30.05F
CROOKSTON      MOSUNNY   59  39  47 S15       30.04S
FOSSTON        SUNNY     57  34  41 S14       30.07F
DETROIT LAKES  CLOUDY    54  28  37 S15       30.09F
MOORHEAD       CLOUDY    57  39  51 S16       30.07F
PARK RAPIDS    CLOUDY    55  26  32 S12       30.10F
MAHNOMEN       FAIR      56  33  41 S13       30.07F
$$
MNZ006-009>011-018-025>026-300000-
   North Central Minnesota

CITY           SKY/WX    TMP DP  RH WIND       PRES   REMARKS
BAUDETTE       SUNNY     58  32  37 S15       30.07S
FLAG ISLAND    SUNNY     50  30  46 SE10      30.04F
INTL FALLS     CLOUDY    53  29  39 VRB7G18   30.12F
WASKISH        CLOUDY    55  32  41 S8        30.10S
BIG FORK       CLOUDY    52  32  46 SE8       30.14F
LONGVILLE      PTSUNNY   52  30  43 SE5       30.13F
GRAND RAPIDS   CLOUDY    47  32  56 SE8       30.17F
CRANE LAKE     CLOUDY    48  27  43 S8        30.19S
ORR            CLOUDY    48  27  43 SE3       30.15S
COOK           CLOUDY    46  30  53 SE10      30.18F
WALKER         FAIR      51  31  47 SE6       30.12S
$$
MNZ012-019>021-037-300000-
   Northeast Minnesota

CITY           SKY/WX    TMP DP  RH WIND       PRES   REMARKS
DULUTH         CLOUDY    35  29  78 E7        30.21F WCI  29
ELY            MOSUNNY   41  25  52 SE8       30.21S
HIBBING        CLOUDY    43  29  57 SE9       30.18F
EVELETH        PTSUNNY   42  23  45 SE7       30.21S
DULUTH HARBOR  CLOUDY    36  32  87 NE21      30.26F
TWO HARBORS    PTSUNNY   37  30  75 NE10G16   30.23S
SILVER BAY     PTSUNNY   34  28  80 NE10      30.25S WCI  26
GRAND MARAIS     N/A     35  30  82 E15       30.30F WCI  25
G MARAIS ARPRT CLOUDY    30  19  64 NE8       30.26S WCI  23
$$
MNZ029>031-032-039>041-046>048-054>057-064-300000-
   West Central Minnesota

CITY           SKY/WX    TMP DP  RH WIND       PRES   REMARKS
FERGUS FALLS   CLOUDY    55  30  38 S16       30.12S
WHEATON        CLOUDY    54  34  47 SE16      30.10S
MORRIS         CLOUDY    52  37  58 S16       30.11R
ALEXANDRIA     CLOUDY    51  34  52 S14       30.12F
ELBOW LAKE     FAIR      53  34  49 S15       30.11S
WADENA         CLOUDY    52  34  50 SE10      30.11S
GLENWOOD       PTSUNNY   48  36  61 SE10      30.14S
APPLETON       CLOUDY    52  36  54 SE10      30.12S
BENSON         CLOUDY    52  34  50 S12       30.15S
ORTONVILLE     CLOUDY    52  36  54 S14       30.10S
MADISON        CLOUDY    52  39  62 SE20      30.12R
WILLMAR        FAIR      46  41  81 SE14      30.16R
$$
MNZ033>034-036-042>043-049>051-058-059-300000-
   Central Minnesota

CITY           SKY/WX    TMP DP  RH WIND       PRES   REMARKS
ST CLOUD       CLOUDY    49  36  61 SE12      30.15S
SAUK CENTRE    FAIR      49  35  59 SE12      30.14S
PAYNESVILLE    CLOUDY    47  36  63 S8        30.16R
AITKIN         CLOUDY    50  30  46 E6        30.14F
PINE RIVER     PTSUNNY   50  36  57 SE8       30.17S
BRAINERD       CLOUDY    49  31  49 SE9       30.15F
STAPLES        PTSUNNY   52  28  40 S6        30.13S
LONG PRAIRIE   FAIR      48  36  61 E8        30.14S
LITTLE FALLS   CLOUDY    48  32  53 SE5       30.15F
LITCHFIELD     DRIZZLE   46  43  87 SE10      30.16S
BUFFALO        DRIZZLE   47  38  71 SE6       30.17S
MAPLE LAKE     CLOUDY    48  40  72 SE5       30.17R
HUTCHINSON     DRIZZLE   45  43  93 E9        30.16S
$$
MNZ037-044-045-052-053-300000-
   East Central Minnesota

CITY           SKY/WX    TMP DP  RH WIND       PRES   REMARKS
PRINCETON      CLOUDY    52  36  54 SE6       30.16S
MORA           CLOUDY    50  34  53 CALM      30.18S
CAMBRIDGE      CLOUDY    52  37  58 S5        30.14F
RUSH CITY      CLOUDY    49  34  55 S6        30.17F
MOOSE LAKE     CLOUDY    36  32  87 NE10      30.18S
CLOQUET        CLOUDY    36  28  75 E8        30.21F
MCGREGOR       CLOUDY    43  32  65 E10       30.18S
$$
MNZ071>073-080-081-089-090-097-098-300000-
   Southwest Minnesota

CITY           SKY/WX    TMP DP  RH WIND       PRES   REMARKS
MONTEVIDEO     CLOUDY    48  39  71 S16G23    30.14R
GRANITE FALLS  DRIZZLE   46  42  86 E13       30.15R
CANBY          CLOUDY    48  39  72 E18G25    30.12S
MARSHALL       LGT RAIN  43  39  87 SE16G22   30.11F
REDWOOD FALLS  LGT RAIN  44  40  85 E14G20    30.12F
OLIVIA         DRIZZLE   43  39  87 E16       30.14S
PIPESTONE      LGT RAIN  41  36  81 E15       30.06F
WINDOM         LGT RAIN  41  37  87 E13G18    30.08F
WORTHINGTON    LGT RAIN  39  36  89 E23       30.04F
JACKSON        LGT RAIN  37  37 100 E21G29    30.06F
TRACY          LGT RAIN  43  40  88 E15G21    30.11S
SLAYTON        LGT RAIN  40  38  94 E15       30.07F
$$
MNZ065>067-074>077-082>085-091>093-300000-
   South Central Minnesota

CITY           SKY/WX    TMP DP  RH WIND       PRES   REMARKS
MANKATO        LGT RAIN  42  38  85 E16G22    30.13S
NEW ULM        RAIN      43  37  81 E14       30.12F
ST JAMES       LGT RAIN  43  39  87 E13G24    30.12S
FAIRMONT       LGT RAIN  40  37  89 E23G30    30.07F
GLENCOE        DRIZZLE   45  44  97 E5        30.15R
FARIBAULT      LGT RAIN  43  39  87 E10G16    30.15S
OWATONNA       LGT RAIN  43  37  81 E17       30.13S
WASECA         RAIN      41  36  81 E21G26    30.14S
ALBERT LEA     LGT RAIN  39  39 100 E20       30.10F
$$
MNZ078>079-086>088-094>096-300000-
   Southeast Minnesota

CITY           SKY/WX    TMP DP  RH WIND       PRES   REMARKS
ROCHESTER      LGT RAIN  41  39  93 E17G33    30.14R
RED WING       CLOUDY    45  37  76 SE8       30.16S
STANTON        RAIN      44  40  85 E10       30.14F
DODGE CENTER   LGT RAIN  39  39 100 E18G28    30.13S
WINONA         DRIZZLE   43  39  87 E9        30.17F
AUSTIN         RAIN      41  37  87 E15       30.11S
PRESTON        LGT RAIN  41  36  83 E14       30.13S
$$
ABBREVIATIONS USED IN REMARKS
   TC - TEMPERATURES IN CELSIUS
  WCI - WIND CHILL INDEX
   HX - HEAT INDEX
  VSB - VISIBILITY
$$




USA.gov is the U.S. government's official web portal to all federal, state and local government web resources and services.